FW2985 Weather Reports


Display with metric or nautical units.
time (UTC)temp
F
wind
direction
speed
MPH
gust
MPH
rain 1hr
in
rain 24hr
in
rain mn
in
humidity
%
barometer
mb
20191216122518 25 272 31.0 42.0 0.00 0.00 0.00 76 998.9
20191216122016 25 264 31.0 48.0 0.00 0.00 0.00 74 999.1
20191216121529 25 265 33.0 53.0 0.00 0.00 0.00 75 998.8
20191216121019 25 287 35.0 53.0 0.00 0.00 0.00 75 998.7
20191216120514 26 290 28.0 44.0 0.00 0.00 0.00 76 998.7
20191216120020 25 285 32.0 44.0 0.00 0.00 0.00 76 998.8
20191216115512 26 252 31.0 47.0 0.00 0.00 0.00 73 998.4
20191216115016 26 267 33.0 47.0 0.00 0.00 0.00 74 998.5
20191216114537 26 276 30.0 48.0 0.00 0.00 0.00 73 998.3
20191216114013 26 289 33.0 48.0 0.00 0.00 0.00 73 998.3
20191216113527 26 278 26.0 47.0 0.00 0.00 0.00 74 997.9
20191216113011 26 271 28.0 49.0 0.00 0.00 0.00 75 997.9
20191216112508 26 275 36.0 50.0 0.00 0.00 0.00 73 997.7
20191216112018 27 298 35.0 50.0 0.00 0.00 0.00 71 997.8
20191216111521 26 247 33.0 49.0 0.00 0.00 0.00 70 997.6
20191216111008 27 281 33.0 49.0 0.00 0.00 0.00 75 997.6
20191216110504 27 287 32.0 47.0 0.00 0.00 0.00 73 997.6
20191216110031 27 312 35.0 47.0 0.00 0.00 0.00 72 997.4
20191216105003 27 289 31.0 47.0 0.00 0.00 0.00 70 997.5
20191216104502 27 272 31.0 49.0 0.00 0.00 0.00 73 997.5
20191216104132 27 291 33.0 49.0 0.00 0.00 0.00 72 997.5
20191216103558 27 288 26.0 46.0 0.00 0.00 0.00 72 997.4
20191216103341 27 312 33.0 46.0 0.00 0.00 0.00 75 997.3
20191216102610 28 274 29.0 47.0 0.00 0.00 0.00 73 997.2
20191216102129 28 285 29.0 45.0 0.00 0.00 0.00 73 997.1
20191216101100 28 266 30.0 44.0 0.00 0.00 0.00 72 997.1
20191216100552 28 276 31.0 50.0 0.00 0.00 0.00 70 997.0
20191216100158 28 280 34.0 50.0 0.00 0.00 0.00 71 997.0
20191216095550 28 278 30.0 44.0 0.00 0.00 0.00 73 996.9
20191216095058 28 265 31.0 44.0 0.00 0.00 0.00 72 996.8
20191216094605 28 287 28.0 46.0 0.00 0.00 0.00 73 996.6
20191216094107 28 293 30.0 46.0 0.00 0.00 0.00 70 996.7
20191216093547 28 284 33.0 46.0 0.00 0.00 0.00 70 996.4
20191216093210 28 285 32.0 46.0 0.00 0.00 0.00 72 996.3
20191216092542 28 277 30.0 45.0 0.00 0.00 0.00 70 996.2
20191216091612 29 308 26.0 43.0 0.00 0.00 0.00 72 995.9
20191216091040 29 289 27.0 48.0 0.00 0.00 0.00 73 995.9
20191216090538 29 258 30.0 48.0 0.00 0.00 0.00 73 995.9
20191216090105 29 282 30.0 44.0 0.00 0.00 0.00 74 995.6
20191216085606 29 263 27.0 49.0 0.00 0.00 0.00 75 995.7
20191216085036 29 272 34.0 49.0 0.00 0.00 0.00 74 995.5
20191216084603 29 284 33.0 43.0 0.00 0.00 0.00 73 995.3
20191216084041 29 271 30.0 47.0 0.00 0.00 0.00 74 995.2
20191216083541 29 278 34.0 47.0 0.00 0.00 0.00 73 994.9
20191216083108 29 275 30.0 44.0 0.00 0.00 0.00 75 994.6
20191216082531 29 258 32.0 46.0 0.00 0.00 0.00 75 994.6
20191216082029 29 263 32.0 46.0 0.00 0.00 0.00 74 994.6
20191216081644 30 289 25.0 42.0 0.00 0.00 0.00 73 994.7
20191216081027 30 282 28.0 42.0 0.00 0.00 0.00 73 994.6
20191216080527 30 295 27.0 42.0 0.00 0.00 0.00 72 994.4
20191216080035 30 292 29.0 41.0 0.00 0.01 0.00 73 994.3
20191216075525 31 282 31.0 40.0 0.00 0.01 0.00 73 994.2
20191216075154 31 266 31.0 39.0 0.00 0.01 0.00 72 994.2
20191216074719 31 302 25.0 38.0 0.00 0.01 0.00 72 994.1
20191216074036 31 312 28.0 41.0 0.00 0.01 0.00 71 994.2
20191216073519 32 274 31.0 41.0 0.00 0.01 0.00 72 994.3
20191216073059 32 282 27.0 42.0 0.00 0.01 0.00 69 994.3
20191216072534 32 299 32.0 42.0 0.00 0.01 0.00 71 994.1
20191216072017 32 278 31.0 38.0 0.00 0.01 0.00 72 993.8
20191216071559 32 271 24.0 38.0 0.00 0.01 0.00 72 994.1
20191216071015 32 293 25.0 38.0 0.00 0.01 0.00 72 994.0
20191216070514 33 304 26.0 37.0 0.00 0.01 0.00 72 993.9
20191216070041 33 318 29.0 40.0 0.00 0.02 0.00 74 993.8
20191216065512 33 307 25.0 40.0 0.00 0.02 0.00 73 993.6
20191216065017 33 299 27.0 38.0 0.00 0.02 0.00 74 993.5
20191216064529 33 307 21.0 39.0 0.00 0.02 0.00 76 993.5
20191216064009 33 305 27.0 39.0 0.00 0.02 0.00 73 993.5
20191216063508 33 302 24.0 40.0 0.00 0.02 0.00 74 993.5
20191216063017 34 261 23.0 40.0 0.00 0.02 0.00 75 993.4
20191216062510 34 282 26.0 39.0 0.00 0.02 0.00 72 993.2
20191216062004 34 295 28.0 36.0 0.00 0.02 0.00 70 993.0
20191216061516 34 273 26.0 39.0 0.00 0.02 0.00 70 992.9
20191216061005 34 282 26.0 41.0 0.00 0.02 0.00 68 992.9
20191216060613 35 278 28.0 41.0 0.00 0.02 0.00 67 992.7
20191216060232 35 266 23.0 32.0 0.00 0.03 0.00 71 992.8
20191216055604 35 293 23.0 38.0 0.00 0.03 0.00 70 992.6
20191216055058 35 297 27.0 38.0 0.00 0.03 0.00 68 992.4
20191216054753 35 283 29.0 40.0 0.00 0.03 0.00 67 992.4
20191216054056 35 285 30.0 42.0 0.00 0.03 0.00 69 992.2
20191216053618 35 264 28.0 42.0 0.00 0.03 0.00 68 992.0
20191216053223 35 287 32.0 42.0 0.00 0.03 0.00 69 991.8
20191216052553 36 286 27.0 42.0 0.00 0.03 0.00 69 992.0
20191216052053 36 278 33.0 45.0 0.00 0.03 0.00 69 991.7
20191216051641 36 251 33.0 45.0 0.00 0.03 0.00 68 991.9
20191216051105 36 272 26.0 42.0 0.00 0.03 0.00 70 991.8
20191216050549 36 259 35.0 42.0 0.00 0.03 0.00 67 991.8
20191216050258 36 266 27.0 42.0 0.00 0.04 0.00 70 991.8
20191216045547 36 263 31.0 46.0 0.00 0.04 0.00 67 991.6
20191216045048 36 257 34.0 48.0 0.00 0.04 0.00 67 991.4
20191216044656 36 290 32.0 48.0 0.00 0.04 0.00 68 991.5
20191216044053 36 276 32.0 44.0 0.00 0.04 0.00 67 991.4
20191216043544 37 258 33.0 44.0 0.00 0.04 0.00 68 991.3
20191216043115 37 268 26.0 38.0 0.00 0.04 0.00 68 991.4
20191216042614 37 259 26.0 40.0 0.00 0.04 0.00 68 991.4
20191216042042 37 268 28.0 42.0 0.00 0.04 0.00 68 991.4
20191216041652 37 253 29.0 46.0 0.00 0.04 0.00 66 991.5
20191216041103 37 266 31.0 46.0 0.00 0.04 0.00 67 991.5
20191216040208 37 184 36.0 48.0 0.00 0.04 0.04 65 991.2
20191216035547 38 276 32.0 42.0 0.00 0.04 0.04 67 991.2
20191216035037 38 266 22.0 38.0 0.00 0.04 0.04 71 991.2
20191216034559 38 272 26.0 38.0 0.00 0.04 0.04 67 991.1
20191216034037 38 281 28.0 45.0 0.00 0.04 0.04 69 991.0
20191216033550 38 277 29.0 45.0 0.00 0.04 0.04 65 991.1
20191216033127 38 271 34.0 42.0 0.00 0.04 0.04 65 991.2
20191216032535 38 278 30.0 41.0 0.00 0.04 0.04 67 991.1
20191216032034 38 282 29.0 41.0 0.00 0.04 0.04 67 991.0
20191216031630 38 268 24.0 36.0 0.00 0.04 0.04 71 991.0
20191216031039 38 267 27.0 39.0 0.00 0.04 0.04 68 990.9
20191216030533 38 243 26.0 41.0 0.00 0.04 0.04 69 990.9
20191216030211 38 278 27.0 44.0 0.00 0.04 0.04 69 990.8
20191216025531 38 251 34.0 44.0 0.00 0.04 0.04 65 990.6
20191216025031 39 271 27.0 41.0 0.00 0.04 0.04 69 990.8
20191216024609 39 274 28.0 36.0 0.00 0.04 0.04 71 990.8
20191216024029 39 269 23.0 33.0 0.00 0.04 0.04 72 990.6
20191216023532 39 268 21.0 32.0 0.00 0.04 0.04 72 990.5
20191216023121 39 280 23.0 32.0 0.00 0.04 0.04 70 990.4
20191216022527 39 270 20.0 32.0 0.00 0.04 0.04 72 990.3
20191216022039 39 255 21.0 32.0 0.00 0.04 0.04 70 990.5
20191216021620 39 261 21.0 34.0 0.00 0.04 0.04 71 990.5
20191216021047 39 266 23.0 37.0 0.00 0.04 0.04 69 990.6
20191216020531 39 272 25.0 37.0 0.00 0.04 0.04 67 990.5
20191216020039 40 288 22.0 39.0 0.00 0.06 0.04 70 990.7
20191216015602 40 275 21.0 33.0 0.00 0.06 0.04 71 990.6
20191216015025 40 278 18.0 31.0 0.00 0.06 0.04 72 990.6
20191216014606 40 280 23.0 34.0 0.00 0.06 0.04 71 990.4
20191216014024 40 265 26.0 37.0 0.00 0.06 0.04 68 990.4
20191216013522 40 261 27.0 37.0 0.00 0.06 0.04 68 990.3
20191216013026 40 255 22.0 32.0 0.00 0.06 0.04 71 990.7
20191216012519 40 275 12.0 31.0 0.00 0.06 0.04 74 990.6
20191216012026 40 249 20.0 31.0 0.00 0.06 0.04 71 990.4
20191216011607 40 272 22.0 33.0 0.00 0.06 0.04 71 990.5
20191216011022 41 265 21.0 35.0 0.00 0.06 0.04 70 990.5
20191216010517 41 276 26.0 35.0 0.00 0.06 0.04 68 990.4
20191216010046 40 249 19.0 30.0 0.00 0.18 0.04 71 990.5
20191216005515 40 247 17.0 28.0 0.00 0.18 0.04 74 990.2
20191216005022 41 247 15.0 24.0 0.00 0.18 0.04 73 990.2
20191216004521 41 249 15.0 28.0 0.00 0.18 0.04 72 990.1
20191216004025 41 251 13.0 28.0 0.00 0.18 0.04 72 989.9
20191216003514 41 276 18.0 30.0 0.00 0.18 0.04 70 990.0
20191216003028 41 276 17.0 30.0 0.00 0.18 0.04 75 990.0
20191216002511 41 247 14.0 24.0 0.00 0.18 0.04 76 989.9
20191216002011 41 239 15.0 24.0 0.00 0.18 0.04 77 989.8
20191216001520 41 232 15.0 27.0 0.00 0.18 0.04 76 989.6
20191216001011 41 232 18.0 28.0 0.00 0.18 0.04 75 989.7
20191216000512 42 258 19.0 37.0 0.00 0.18 0.04 73 989.7
20191216000039 42 258 25.0 40.0 0.00 0.28 0.04 72 989.6
20191215235515 42 241 25.0 40.0 0.00 0.28 0.04 76 989.5
20191215235010 41 238 19.0 29.0 0.00 0.28 0.04 80 989.5
20191215234555 41 241 15.0 25.0 0.00 0.28 0.04 81 989.3
20191215234008 41 235 16.0 23.0 0.00 0.28 0.04 82 989.2
20191215233519 41 222 16.0 21.0 0.00 0.28 0.04 83 989.1
20191215233007 41 241 11.0 20.0 0.00 0.28 0.04 83 989.0
20191215232514 41 228 12.0 24.0 0.00 0.28 0.04 83 989.1
20191215232011 41 214 14.0 20.0 0.00 0.28 0.04 83 989.0
20191215231515 41 206 14.0 19.0 0.00 0.28 0.04 84 988.9
20191215231012 41 220 12.0 19.0 0.00 0.28 0.04 84 988.9
20191215230506 41 189 14.0 19.0 0.00 0.28 0.04 83 988.8
20191215230029 41 206 11.0 20.0 0.00 0.52 0.04 83 988.8
20191215225506 41 212 14.0 20.0 0.00 0.52 0.04 84 988.8
20191215225015 41 212 10.0 18.0 0.00 0.52 0.04 83 988.7
20191215224507 41 220 11.0 15.0 0.00 0.52 0.04 83 988.7
20191215224004 41 218 9.0 15.0 0.00 0.52 0.04 83 988.6
20191215223503 41 209 10.0 15.0 0.00 0.52 0.04 82 988.6
20191215223014 41 227 11.0 18.0 0.00 0.52 0.04 81 988.7
20191215222508 41 227 11.0 18.0 0.00 0.52 0.04 81 988.6
20191215222008 41 218 11.0 18.0 0.00 0.52 0.04 80 988.6
20191215221532 41 238 13.0 22.0 0.00 0.52 0.04 80 988.6
20191215221004 41 216 16.0 23.0 0.00 0.52 0.04 80 988.5
20191215220505 41 216 15.0 23.0 0.00 0.52 0.04 82 988.5
20191215220002 41 239 14.0 20.0 0.00 0.68 0.04 85 988.4
20191215215503 41 205 13.0 20.0 0.00 0.68 0.04 84 988.3
20191215215100 41 222 14.0 22.0 0.00 0.68 0.04 83 988.3
20191215214740 41 233 13.0 23.0 0.00 0.68 0.04 82 988.2
20191215214059 41 237 16.0 24.0 0.00 0.68 0.04 82 988.0
20191215213559 41 228 15.0 27.0 0.00 0.68 0.04 83 988.0
20191215213135 42 251 17.0 27.0 0.00 0.68 0.04 82 987.8
20191215212558 42 230 13.0 24.0 0.00 0.68 0.04 82 987.9
20191215212059 42 239 17.0 25.0 0.00 0.68 0.04 82 987.8
20191215211643 42 212 14.0 25.0 0.00 0.68 0.04 83 987.9
20191215211124 42 239 14.0 26.0 0.00 0.68 0.04 83 987.9
20191215210604 42 239 15.0 26.0 0.00 0.68 0.04 83 987.8
20191215210154 42 223 15.0 27.0 0.00 0.76 0.04 84 987.7
20191215205054 42 237 16.0 26.0 0.00 0.76 0.04 83 987.5
20191215204708 42 228 15.0 20.0 0.00 0.76 0.04 84 987.4
20191215204053 42 211 12.0 19.0 0.00 0.76 0.04 84 987.3
20191215203552 42 223 13.0 19.0 0.00 0.76 0.04 84 987.4
20191215203219 42 226 12.0 19.0 0.00 0.76 0.04 84 987.4
20191215202551 42 228 13.0 21.0 0.00 0.76 0.04 84 987.3
20191215202100 42 231 10.0 21.0 0.00 0.76 0.04 85 987.2
20191215201711 42 203 10.0 15.0 0.00 0.76 0.04 86 986.9
20191215201116 43 210 9.0 20.0 0.00 0.76 0.04 86 986.9
20191215200556 43 224 12.0 20.0 0.00 0.76 0.04 86 986.6
20191215200103 43 220 13.0 22.0 0.00 0.88 0.04 86 986.7
20191215195559 44 226 16.0 22.0 0.00 0.88 0.04 86 986.6
20191215195047 44 222 15.0 22.0 0.00 0.88 0.04 87 986.7
20191215194618 44 217 12.0 21.0 0.00 0.88 0.04 87 986.4
20191215194046 44 220 16.0 23.0 0.00 0.88 0.04 87 986.2
20191215193602 44 233 14.0 28.0 0.00 0.88 0.04 87 985.9
20191215193201 45 230 20.0 36.0 0.00 0.88 0.04 85 985.7
20191215192541 46 249 21.0 36.0 0.00 0.88 0.04 83 985.7
20191215192040 48 230 19.0 30.0 0.00 0.88 0.04 81 985.1
20191215191623 48 226 20.0 27.0 0.00 0.88 0.04 80 984.6
20191215191038 48 208 18.0 24.0 0.00 0.88 0.04 80 984.7
20191215190544 48 229 16.0 24.0 0.00 0.88 0.04 81 984.6
20191215190156 48 203 17.0 27.0 0.00 0.93 0.04 81 984.5
20191215185537 49 204 17.0 27.0 0.00 0.93 0.04 81 984.6
20191215185051 49 218 17.0 24.0 0.00 0.93 0.04 82 984.5
20191215184640 49 214 16.0 25.0 0.00 0.93 0.04 82 984.6
20191215184051 49 229 18.0 25.0 0.00 0.93 0.04 82 984.5
20191215183553 49 218 17.0 27.0 0.00 0.93 0.04 82 984.5
20191215183145 49 209 20.0 30.0 0.00 0.93 0.04 83 984.5
20191215182542 49 232 20.0 30.0 0.00 0.93 0.04 82 984.5
20191215182046 49 205 19.0 35.0 0.00 0.93 0.04 82 984.5
20191215181620 49 212 24.0 35.0 0.00 0.93 0.04 81 984.5
20191215181033 49 218 20.0 33.0 0.00 0.93 0.04 82 984.8
20191215180541 49 215 23.0 33.0 0.00 0.93 0.04 81 984.6
20191215180059 50 218 24.0 33.0 0.00 0.95 0.04 80 984.5
20191215175531 50 213 24.0 35.0 0.00 0.95 0.04 81 984.4
20191215175040 50 220 22.0 35.0 0.00 0.95 0.04 81 984.4
20191215174602 50 216 20.0 32.0 0.00 0.95 0.04 81 984.6
20191215174030 50 171 18.0 30.0 0.00 0.95 0.04 82 984.7
20191215173535 49 208 19.0 27.0 0.00 0.95 0.04 82 984.5
20191215173227 49 210 16.0 27.0 0.00 0.95 0.04 82 984.8
20191215172529 50 224 20.0 28.0 0.00 0.95 0.04 82 984.8
20191215172033 50 226 19.0 30.0 0.00 0.95 0.04 82 985.1
20191215171615 50 216 20.0 32.0 0.00 0.95 0.04 82 985.0
20191215171028 49 216 24.0 32.0 0.00 0.95 0.04 82 985.1
20191215170528 50 238 21.0 37.0 0.00 0.95 0.04 81 984.8
20191215170130 51 219 22.0 37.0 0.00 0.95 0.04 80 985.3
20191215165537 52 233 22.0 36.0 0.00 0.95 0.04 76 984.6
20191215165034 53 232 20.0 28.0 0.00 0.95 0.04 77 984.4
20191215164557 54 210 18.0 31.0 0.00 0.95 0.04 76 984.4
20191215164021 54 189 22.0 31.0 0.00 0.95 0.04 76 984.3
20191215163523 55 198 16.0 33.0 0.00 0.95 0.04 78 984.3
20191215163047 55 196 22.0 33.0 0.00 0.95 0.04 78 984.5
20191215162526 56 208 19.0 34.0 0.00 0.95 0.04 77 984.7
20191215162019 56 195 23.0 33.0 0.00 0.95 0.04 76 984.3
20191215161537 56 197 22.0 34.0 0.00 0.95 0.04 76 984.4
20191215161023 57 217 25.0 35.0 0.00 0.95 0.04 75 984.5
20191215160523 57 195 22.0 35.0 0.00 0.95 0.04 75 984.6
20191215155524 57 184 21.0 32.0 0.00 0.95 0.04 75 984.6
20191215155018 58 189 17.0 30.0 0.00 0.95 0.04 76 984.4
20191215154529 58 194 21.0 30.0 0.00 0.95 0.04 76 984.3
20191215153518 58 204 22.0 31.0 0.00 0.95 0.04 77 984.1
20191215153045 58 189 19.0 27.0 0.00 0.95 0.04 77 984.2
20191215152512 58 152 19.0 28.0 0.00 0.95 0.04 78 984.5
20191215152021 58 172 21.0 29.0 0.00 0.95 0.04 78 984.8
20191215151609 58 175 21.0 29.0 0.00 0.95 0.04 77 984.9
20191215151013 58 179 18.0 30.0 0.00 0.95 0.04 78 984.9
20191215150510 59 197 20.0 31.0 0.00 0.95 0.04 78 985.0
20191215145518 59 208 20.0 29.0 0.00 0.95 0.04 79 985.2
20191215144006 59 189 23.0 32.0 0.00 0.95 0.04 81 985.6
20191215143500 59 179 20.0 34.0 0.00 0.95 0.04 82 986.0
20191215143247 59 179 17.0 34.0 0.00 0.95 0.04 82 986.3
20191215142600 58 172 21.0 34.0 0.00 0.95 0.04 83 986.3
20191215141056 58 189 21.0 31.0 0.00 0.95 0.04 85 986.8
20191215140554 59 208 20.0 35.0 0.00 0.95 0.04 85 987.1
20191215140536 59 197 19.0 35.0 0.00 0.95 0.04 86 987.1
20191215135558 59 151 19.0 35.0 0.00 0.95 0.04 86 987.4
20191215135108 59 189 25.0 35.0 0.00 0.95 0.04 86 987.5
20191215134106 59 195 21.0 31.0 0.00 0.95 0.04 88 987.6
20191215133616 59 201 18.0 31.0 0.00 0.95 0.04 89 987.5
20191215132054 59 196 19.0 33.0 0.00 0.95 0.04 89 987.5
20191215131126 59 200 20.0 31.0 0.00 0.95 0.04 89 987.7
20191215130601 59 203 24.0 31.0 0.00 0.95 0.04 89 987.4
20191215130534 59 184 24.0 31.0 0.00 0.95 0.04 89 987.5
20191215130113 59 211 22.0 30.0 0.00 0.95 0.04 89 987.6
20191215125530 59 205 17.0 31.0 0.00 0.95 0.04 89 987.6
20191215125029 59 189 23.0 31.0 0.00 0.95 0.04 89 987.5
20191215124604 59 195 22.0 34.0 0.00 0.95 0.04 89 987.5
20191215124045 59 189 26.0 34.0 0.00 0.95 0.04 89 987.4
20191215123542 59 189 19.0 34.0 0.00 0.95 0.04 89 987.5
20191215123419 59 205 22.0 33.0 0.00 0.95 0.04 90 987.5